XW-2D
1 40907U 15049J 22202.79538370 .00006598 00000-0 30827-3 0 9990
2 40907 97.4921 205.9494 0011569 230.1164 255.1755 15.20084163378183
LILACSAT-2
1 40908U 15049K 22202.74927370 .00003080 00000-0 16371-3 0 9999
2 40908 97.5178 202.9952 0013559 257.4111 188.7681 15.15970971377688
XW-2E
1 40909U 15049L 22202.74746514 .00010245 00000-0 42406-3 0 9998
2 40909 97.4646 210.5051 0010883 207.1661 239.5514 15.24079515378632
XW-2F
1 40910U 15049M 22202.82557961 .00010143 00000-0 42637-3 0 9998
2 40910 97.4722 209.7251 0011992 208.3420 277.3219 15.23549937378416
XW-2B
1 40911U 15049N 22202.75024238 .00006452 00000-0 30252-3 0 9995
2 40911 97.4907 206.4954 0011557 231.4298 215.6796 15.19967152378067
DCBB
1 40912U 15049P 22202.75195058 .00011902 00000-0 45445-3 0 9991
2 40912 97.4359 213.9990 0012728 172.6527 273.8696 15.26719555378980
TW-1A
1 40928U 15051D 22202.78073141 .00052782 00000-0 59294-3 0 9990
2 40928 97.0364 225.1875 0004577 239.8541 207.4426 15.62455203383595
IO-86
1 40931U 15052B 22202.62258008 .00000786 00000-0 20088-4 0 9992
2 40931 6.0017 285.3659 0013845 296.6783 63.1985 14.76832865368406
AO-85
1 40967U 15058D 22201.48303722 .00003357 00000-0 36319-3 0 4258
2 40967 64.7775 331.5120 0191147 189.8821 169.8558 14.77547331 65543
ATHENOXAT-1
1 41168U 15077C 22202.65554822 .00016284 00000-0 66166-3 0 9994
2 41168 14.9806 196.7612 0009722 1.8894 144.2002 15.21756216365522
ChubuSat-2
1 41338U 16012B 22202.23827944 .00002143 00000-0 15513-3 0 9994
2 41338 31.0017 168.7613 0013276 128.7205 231.4620 15.01485263352563
ChubuSat-3
1 41339U 16012C 22202.56180084 .00001871 00000-0 13435-3 0 9996
2 41339 31.0098 163.6277 0012881 139.8307 220.3291 15.01555166352617
Horyu-4
1 41340U 16012D 22202.23289395 .00003556 00000-0 24798-3 0 9993
2 41340 31.0037 143.3683 0013301 177.6796 182.3903 15.03496885352811
e-st@r-II
1 41459U 16025D 22202.46595056 .00018782 00000-0 79447-3 0 9995
2 41459 98.1886 10.1549 0144211 153.6267 207.2409 15.14211689342649
AAUSAT4
1 41460U 16025E 22202.70888389 .00028758 00000-0 10625-2 0 9994
2 41460 98.1819 16.9363 0123941 127.8874 233.3651 15.20674934343147
LO-87
1 41557U 16033B 22202.86986813 .00014212 00000-0 41444-3 0 9992
2 41557 97.3895 300.6428 0009098 249.4157 228.8739 15.35429418342668
NuSat2
1 41558U 16033C 22202.85470088 .00013712 00000-0 37666-3 0 9999
2 41558 97.4101 306.5205 0008889 237.5492 239.1504 15.37309038342937
Lapan A3
1 41603U 16040E 22202.78341407 .00001512 00000-0 71510-4 0 9994
2 41603 97.2039 238.3130 0014373 45.3595 43.8657 15.20758466337252
Pratham
1 41783U 16059A 22202.61557704 .00000463 00000-0 97621-4 0 9999
2 41783 97.9112 242.7985 0034719 67.1649 293.3215 14.63386285310621
TY-1
1 41844U 16066D 22202.87738635 .00014039 00000-0 46671-3 0 9999
2 41844 97.3884 214.7391 0013280 157.9842 321.6613 15.31206558316872
CAS-2T
1 41847U 16066G 22202.42422031 .00001311 00000-0 20413-3 0 9998
2 41847 98.5492 267.0554 0364775 108.2471 255.8769 14.38654141299231
EO-88
1 42017U 17008BX 22202.13479678 .00018657 00000-0 54017-3 0 9990
2 42017 97.2668 267.7769 0006542 119.9747 240.2147 15.35610680302249
CAS-4B
1 42759U 17034B 22202.86388248 .00003670 00000-0 22202-3 0 9994
2 42759 43.0165 142.9991 0007941 151.4997 305.2479 15.12112753281560
CAS-4A
1 42761U 17034D 22202.89912402 .00003898 00000-0 23443-3 0 9995
2 42761 43.0165 141.5684 0008264 154.1230 310.6309 15.12201582281578
NIUSat
1 42766U 17036B 22202.34898864 .00007955 00000-0 30330-3 0 9998
2 42766 97.1999 238.9654 0012937 199.0158 161.0600 15.26868643281973
Aalto 1
1 42775U 17036L 22202.07634108 .00007603 00000-0 29758-3 0 9999
2 42775 97.1955 238.5685 0011849 198.8846 161.1955 15.26023245281905
URSA MAIOR
1 42776U 17036M 22202.37233275 .00007865 00000-0 30221-3 0 9990
2 42776 97.1969 239.6159 0011574 196.2001 163.8870 15.26629388281982
Max Valier Sat
1 42778U 17036P 22202.32842591 .00008699 00000-0 32549-3 0 9995
2 42778 97.2031 242.2711 0010250 195.3957 164.6972 15.27492720282071
Pegasus
1 42784U 17036V 22202.59978823 .00010973 00000-0 38512-3 0 9993
2 42784 97.1971 243.4344 0009623 194.9409 165.1549 15.29539423282232
NUDATSat
1 42787U 17036Y 22202.60611264 .00022127 00000-0 65610-3 0 9994
2 42787 97.2004 247.7987 0008376 178.8662 181.2602 15.34811226282339
SUCHAI 1
1 42788U 17036Z 22201.11736389 .00018711 00000-0 61767-3 0 9999
2 42788 97.1975 243.7211 0008983 193.0526 167.0484 15.31413862282188
SKCUBE
1 42789U 17036AA 22202.37279330 .00011657 00000-0 39559-3 0 9993
2 42789 97.1976 244.3680 0009118 190.3261 169.7794 15.30623286282268
VZLUSAT 1
1 42790U 17036AB 22202.09528669 .00021080 00000-0 62887-3 0 9997
2 42790 97.1999 247.2624 0008391 180.1624 179.9618 15.34628303282400
VENTA 1
1 42791U 17036AC 22202.54970889 .00009919 00000-0 34391-3 0 9999
2 42791 97.1976 244.3984 0008847 190.5139 169.5919 15.29969761282279
Robusta 1B
1 42792U 17036AD 22202.38209451 .00013076 00000-0 43574-3 0 9994
2 42792 97.1974 244.9642 0008692 189.3697 170.7384 15.31188385282311
D-SAT
1 42794U 17036AF 22202.46716099 .00002839 00000-0 24271-3 0 9994
2 42794 97.4510 206.0835 0121932 332.0165 27.4533 14.92803793276551
TechnoSat
1 42829U 17042E 22202.55767421 .00001231 00000-0 12666-3 0 9995
2 42829 97.4182 54.7014 0012426 251.8403 108.1464 14.91937148273178
QIKCOM-1
1 42983U 98067NF 22202.62691999 .01041610 11946-4 39445-3 0 9991
2 42983 51.6198 357.1754 0008587 302.7489 57.2702 16.23442766270431
AO-91
1 43017U 17073E 22202.75087691 .00004524 00000-0 33843-3 0 9993
2 43017 97.6714 95.5376 0249554 75.6133 287.2640 14.81613050252197
PICSAT
1 43132U 18004X 22202.46237156 .00012792 00000-0 41313-3 0 9994
2 43132 97.3707 278.6688 0006368 227.2885 132.7821 15.32227542251612
AO-92
1 43137U 18004AC 22202.76591424 .00010782 00000-0 37383-3 0 9992
2 43137 97.3673 277.6235 0006352 231.1989 128.8685 15.29975688251585
TianYi 2
1 43155U 18008A 22202.77502128 .00007956 00000-0 41871-3 0 9996
2 43155 97.3502 260.0739 0016893 30.9050 108.3244 15.15770825248475
Zhou Enlai
1 43156U 18008B 22202.79452855 .00008155 00000-0 43191-3 0 9999
2 43156 97.3548 259.9773 0014187 33.1331 103.4088 15.15575144248404
TianYi 6
1 43158U 18008D 22202.12599762 .00006974 00000-0 38177-3 0 9992
2 43158 97.3502 257.2398 0013819 35.2238 18.1635 15.14456658248205
S-Net D
1 43186U 18014G 22202.69636245 .00002389 00000-0 20693-3 0 9990
2 43186 97.6563 107.7803 0010653 171.4378 188.7029 14.98025080244048
S-Net B
1 43187U 18014H 22202.69653695 .00002354 00000-0 20393-3 0 9998
2 43187 97.6560 107.7305 0010659 171.3797 188.7610 14.98023206244047
S-Net A
1 43188U 18014J 22202.29605026 .00002482 00000-0 21480-3 0 9990
2 43188 97.6564 107.4028 0010606 172.7976 187.3401 14.98020974243981
S-Net C
1 43189U 18014K 22202.69758605 .00002258 00000-0 19588-3 0 9994
2 43189 97.6560 107.7198 0010614 171.4522 188.6883 14.98020601242592
FMN 1
1 43192U 18015A 22202.90041212 .00032252 00000-0 80767-3 0 9996
2 43192 97.5389 348.9830 0009459 263.3467 255.2293 15.39973384248740
Shaonian Xing
1 43199U 18015H 22202.87693115 .00018172 00000-0 53231-3 0 9995
2 43199 97.5184 343.8328 0011209 277.1485 241.4401 15.35215355248724
